CW4299 Weather Reports


Display with metric or nautical units.
time (UTC)temp
F
wind
direction
speed
MPH
gust
MPH
rain 1hr
in
rain 24hr
in
rain mn
in
humidity
%
barometer
mb
20200402084554 0 0.0 0.0 0.00 0.00 0.00 1014.9
20200402083058 0 0.0 0.0 0.00 0.00 0.00 1014.8
20200402081644 0 0.0 0.0 0.00 0.00 0.00 1014.8
20200402080127 0 0.0 0.0 0.00 0.00 0.00 1015.1
20200402074601 0 0.0 0.0 0.00 0.00 0.00 1015.0
20200402073057 0 0.0 0.0 0.00 0.00 0.00 1015.0
20200402071558 0 0.0 0.0 0.00 0.00 0.00 1015.1
20200402070116 0 0.0 0.0 0.00 0.00 0.00 1015.0
20200402064517 64 23 0.0 6.0 0.00 0.00 0.00 70 1015.0
20200402063017 64 55 1.0 5.0 0.00 0.00 0.00 73 1014.9
20200402061527 64 11 0.0 5.0 0.00 0.00 0.00 75 1015.0
20200402060020 64 23 0.0 0.0 0.00 0.00 0.00 75 1015.1
20200402054539 65 20 0.0 3.0 0.00 0.00 0.00 74 1015.2
20200402053029 65 351 0.0 2.0 0.00 0.00 0.00 74 1015.2
20200402051510 65 335 0.0 2.0 0.00 0.00 0.00 74 1015.1
20200402050007 65 11 0.0 2.0 0.00 0.00 0.00 74 1015.2
20200402044513 64 17 0.0 0.0 0.00 0.00 0.00 74 1015.2
20200402043009 65 335 0.0 0.0 0.00 0.00 0.00 74 1015.3
20200402041511 65 39 0.0 2.0 0.00 0.00 0.00 74 1015.1
20200402034624 64 4 0.0 0.0 0.00 0.00 0.00 73 1015.0
20200402033144 65 27 0.0 0.0 0.00 0.00 0.00 73 1014.9
20200402031622 65 49 0.0 0.0 0.00 0.00 0.00 71 1014.9
20200402030121 65 18 0.0 4.0 0.00 0.00 0.00 72 1014.9
20200402024647 65 357 0.0 2.0 0.00 0.00 0.00 71 1014.6
20200402023120 65 352 0.0 0.0 0.00 0.00 0.00 70 1014.6
20200402021707 65 360 0.0 0.0 0.00 0.00 0.00 70 1014.4
20200402020113 65 336 0.0 9.0 0.00 0.00 0.00 69 1014.2
20200402014617 65 344 0.0 0.0 0.00 0.00 0.00 68 1013.9
20200402013202 65 318 0.0 11.0 0.00 0.00 0.00 68 1013.8
20200402011619 65 18 4.0 11.0 0.00 0.00 0.00 67 1013.7
20200402010119 64 314 1.0 11.0 0.00 0.00 0.00 68 1013.5
20200402004615 64 343 0.0 13.0 0.00 0.00 0.00 68 1013.4
20200402003059 64 338 2.0 12.0 0.00 0.00 0.00 68 1013.1
20200402001548 64 27 3.0 12.0 0.00 0.00 0.00 69 1012.9
20200402000127 64 322 2.0 11.0 0.00 0.00 0.00 69 1012.8
20200401234549 65 321 0.0 7.0 0.00 0.00 0.00 68 1012.6
20200401233053 65 324 0.0 9.0 0.00 0.00 0.00 66 1012.4
20200401231552 66 338 4.0 10.0 0.00 0.00 0.00 65 1012.3
20200401230054 66 305 0.0 11.0 0.00 0.00 0.00 63 1012.1
20200401224525 67 308 3.0 11.0 0.00 0.00 0.00 62 1012.0
20200401223050 67 4 3.0 16.0 0.00 0.00 0.00 62 1012.0
20200401221529 67 320 2.0 12.0 0.00 0.00 0.00 61 1012.0
20200401220032 67 321 1.0 13.0 0.00 0.00 0.00 62 1012.0
20200401214529 68 307 4.0 15.0 0.00 0.00 0.00 63 1012.0
20200401213044 68 272 3.0 14.0 0.00 0.00 0.00 63 1012.0
20200401211554 68 304 2.0 13.0 0.00 0.00 0.00 61 1012.1
20200401210105 68 329 3.0 15.0 0.00 0.00 0.00 57 1011.9
20200401204539 68 340 4.0 17.0 0.00 0.00 0.00 56 1011.8
20200401203037 68 271 3.0 14.0 0.00 0.00 0.00 55 1011.9
20200401201548 68 295 4.0 16.0 0.00 0.00 0.00 54 1011.8
20200401200052 68 323 4.0 17.0 0.00 0.00 0.00 58 1011.7
20200401194549 69 326 4.0 15.0 0.00 0.00 0.00 55 1011.7
20200401193022 69 266 5.0 16.0 0.00 0.00 0.00 56 1011.8
20200401191536 69 4 6.0 17.0 0.00 0.00 0.00 54 1011.8
20200401190023 69 321 3.0 12.0 0.00 0.00 0.00 55 1011.8
20200401184639 69 281 2.0 14.0 0.00 0.00 0.00 56 1011.9
20200401183015 69 338 6.0 16.0 0.00 0.00 0.00 54 1012.1
20200401181521 69 344 1.0 14.0 0.00 0.00 0.00 58 1012.0
20200401180039 68 316 5.0 15.0 0.00 0.00 0.00 56 1012.0
20200401174538 68 327 5.0 16.0 0.00 0.00 0.00 58 1012.2
20200401173040 68 342 10.0 21.0 0.00 0.00 0.00 60 1012.3
20200401171531 68 330 0.0 13.0 0.00 0.00 0.00 61 1012.4
20200401170050 68 351 2.0 16.0 0.00 0.00 0.00 61 1012.5
20200401164507 68 326 2.0 11.0 0.00 0.00 0.00 58 1012.6
20200401163007 67 346 3.0 14.0 0.00 0.00 0.00 61 1012.8
20200401161507 67 309 1.0 12.0 0.00 0.00 0.00 63 1012.8
20200401160006 67 319 5.0 13.0 0.00 0.00 0.00 61 1012.8
20200401154507 67 341 6.0 14.0 0.00 0.00 0.00 64 1012.8
20200401153006 67 324 4.0 16.0 0.00 0.00 0.00 64 1012.8
20200401151505 66 336 0.0 16.0 0.00 0.00 0.00 67 1012.7
20200401150256 66 342 6.0 14.0 0.00 0.00 0.00 66 1012.8
20200401144708 66 351 7.0 16.0 0.00 0.00 0.00 66 1012.6
20200401143249 66 321 7.0 16.0 0.00 0.00 0.00 66 1012.6
20200401141624 66 20 9.0 18.0 0.00 0.00 0.00 71 1012.3
20200401140101 67 13 9.0 18.0 0.00 0.00 0.00 72 1012.2
20200401134725 67 333 9.0 20.0 0.00 0.00 0.00 70 1012.1
20200401133119 68 336 7.0 16.0 0.00 0.00 0.00 66 1012.0
20200401131620 67 347 8.0 17.0 0.00 0.00 0.00 69 1011.8
20200401130133 67 338 5.0 16.0 0.00 0.00 0.00 71 1011.7
20200401124633 66 350 4.0 15.0 0.00 0.00 0.00 73 1011.5
20200401123237 66 316 0.0 6.0 0.00 0.00 0.00 71 1011.2
20200401121543 66 13 1.0 16.0 0.00 0.00 0.00 72 1011.0
20200401120102 0 0.0 0.0 0.00 0.00 0.00 1010.9
20200401114631 0 0.0 0.0 0.00 0.00 0.00 1010.8
20200401113033 0 0.0 0.0 0.00 0.00 0.00 1010.6
20200401111602 0 0.0 0.0 0.00 0.00 0.00 1010.3
20200401110026 0 0.0 0.0 0.00 0.00 0.00 1010.1
20200401104528 0 0.0 0.0 0.00 0.00 0.00 1009.9
20200401103103 0 0.0 0.0 0.00 0.00 0.00 1009.6
20200401101513 0 0.0 0.0 0.00 0.00 0.00 1009.3
20200401100100 0 0.0 0.0 0.00 0.00 0.00 1009.0
20200401094709 0 0.0 0.0 0.00 0.00 0.00 1008.9
20200401093100 0 0.0 0.0 0.00 0.00 0.00 1008.5
20200401091627 0 0.0 0.0 0.00 0.00 0.00 1008.5
20200401090055 0 0.0 0.0 0.00 0.00 0.00 1008.2